Torna al catalogo

FENGYUN 1C DEB

AttivoSSO
NORAD 29796·DEBRIS·🇨🇳 China

Lanciato May 10, 1999 da Taiyuan Satellite Launch Center

Loading…

Prossimi Passaggi (prossime 24 ore)

TLE

AggiornatoSource: Space-Track

Epoca: Sep 14, 2026, 09:50 UTC

1 29796U 99025CN  26257.40979435  .00000729  00000-0  40993-3 0  9997
2 29796  98.8368 310.9781 0051903 205.7936 220.3405 14.12949338  9511

Traccia FENGYUN 1C DEB in tempo reale con AllMySat

Download on the App Store